BLOCK DM-SL DEB, 46091

Orbit data source: Space-Track

BLOCK DM-SL DEB, 46091 is space debris in GEO originally from a launch on Tue, 24 Dec 2019 UTC launched from the Tyuratam Missile And Space Complex (TTMTR). Debris objects in space refer to the collection of defunct objects orbiting the Earth. Examples of debris include non-operational satellites, rocket bodies, and fragments generated from explosions, collisions, or faulty payload assembly.

Not visible in the next 10 days
Identifier
46091, 2019-095E
Orbit
GEO
Country
Flag of CISCIS
Related business
Manufacturer
Lavochkin
Mission
Spacecraft
Bus & Motor
Unknown
Mass
Unknown
Launch date (UTC)
2019-12-24 (6 years ago)
Launch vehicle
Unknown
Launch site
Tyuratam Missile And Space Complex (TTMTR)
Object type
Payload
Rocket body
Debris
Shape & HBR
Unknown shape, 1.1 m
Radar Cross Section
Medium (>0.1 m² and <1 m²)

Expand to show TLE details & history
Last TLE update: 2 days ago

TLE from 2 days ago
0 BLOCK DM-SL DEB
1 46091U 19095E   25308.86155544 -.00000247  00000-0  00000-0 0  9994
2 46091   4.7659  76.2988 0114465 203.3566 156.0761  1.03265423 21420
Epoch: 2025-11-04T20:40Z
TLE epoch observation values (Epoch: 2025-11-04T20:40:38.390Z)
Latitude
-0.00003°
Longitude
81.7124°
Altitude
35,400.241 km
Speed
3.073 km/s
True Right ascension
05h 04m 51s
True Declination
0° 00' 00"
Sunlit
Object was in daylight at epoch
Visualization orbit readout
Latitude
Unknown
Longitude
Unknown
Altitude
Unknown
Speed
Unknown
Apparent Right ascension
Unknown
Apparent Declination
Unknown
Sunlit
N/A
Visualization observer readout
Local Sidereal Time
11:42:04
Azimuth
Unknown
Elevation
Unknown
Doppler factor
Unknown
Orbital elements
Apogee altitude
35,442.067 km
Perigee altitude
34,495.512 km
Semi-major axis
41,346.926 km
Eccentricity
0.01145
Inclination
4.7659°
RAAN
76.2988°
Arg. of periapsis
203.3566°
True anomaly
156.60114°
Mean anomaly
156.0761°
Eccentric anomaly
156.3393°
Mean motion
0.25815 °/min
Orbital period
1,394.52 mins
BSTAR
0
Loading maneuver chart data...
Computing Atmospheric mass density...
Loading historical data...
Loading historical data...
Loading historical data...
Loading historical data...
Loading historical data...
Loading historical data...
Loading historical data...
Other satellites on launch #95 in the year 2019 (2019-12-24 UTC)

Documentation

Showing up to 5 results
|